Retour au catalogue

STARLINK-33738

ActifCommunicationsVLEO
NORAD 63889·PAYLOAD·🇺🇸 United States

Lancé May 10, 2025 depuis Vandenberg Space Force Base

Loading…

Prochains Passages (prochaines 24 heures)

TLE

FraisSource: CelesTrak SupGP

Époque: Sep 15, 2026, 02:27 UTC

1 63889C 25094AB  26258.10256944  .00009317  00000+0  32412-3 0  2580
2 63889  69.9985 115.3617 0003322 272.4154  59.0064 15.29573033    14

Suivez STARLINK-33738 en temps réel avec AllMySat

Download on the App Store